FW8513 Weather Reports


Display with metric or nautical units.
time (UTC)temp
F
wind
direction
speed
MPH
gust
MPH
rain 1hr
in
rain 24hr
in
rain mn
in
humidity
%
barometer
mb
20260504034544 57 16 8.0 13.0 0.00 0.00 0.00 39 1009.9
20260504033043 58 21 10.0 15.0 0.00 0.00 0.00 37 1009.4
20260504031540 59 43 10.0 16.0 0.00 0.00 0.00 36 1009.1
20260504030045 61 35 10.0 22.0 0.00 0.00 0.00 35 1008.6
20260504024537 62 35 13.0 19.0 0.00 0.00 0.00 33 1008.4
20260504023043 64 28 7.0 13.0 0.00 0.00 0.00 30 1008.2
20260504021538 66 34 9.0 21.0 0.00 0.00 0.00 27 1007.9
20260504020046 69 42 7.0 12.0 0.00 0.00 0.00 22 1007.7
20260504014548 70 34 8.0 12.0 0.00 0.00 0.00 20 1007.7
20260504013048 71 44 6.0 11.0 0.00 0.00 0.00 20 1007.9
20260504011546 71 14 6.0 13.0 0.00 0.00 0.00 20 1008.0
20260504010041 72 10 8.0 14.0 0.00 0.00 0.00 19 1008.0
20260504004539 72 26 8.0 14.0 0.00 0.00 0.00 19 1008.2
20260504003037 73 20 8.0 16.0 0.00 0.00 0.00 20 1008.3
20260504001539 73 352 12.0 17.0 0.00 0.00 0.00 20 1008.3
20260504000047 73 14 10.0 14.0 0.00 0.00 0.00 19 1008.5
20260503234539 74 5 11.0 19.0 0.00 0.00 0.00 20 1008.7
20260503233037 74 352 12.0 19.0 0.00 0.00 0.00 20 1008.6
20260503231537 74 30 10.0 18.0 0.00 0.00 0.00 19 1008.8
20260503230059 73 360 10.0 21.0 0.00 0.00 0.00 20 1008.7
20260503224542 73 317 8.0 17.0 0.00 0.00 0.00 19 1009.1
20260503223039 73 42 12.0 21.0 0.00 0.00 0.00 21 1009.4
20260503221539 73 300 4.0 20.0 0.00 0.00 0.00 19 1009.3
20260503220044 73 310 8.0 16.0 0.00 0.00 0.00 20 1009.6
20260503214543 73 304 11.0 19.0 0.00 0.00 0.00 19 1009.7
20260503213038 72 40 5.0 18.0 0.00 0.00 0.00 20 1009.9
20260503211549 71 276 7.0 14.0 0.00 0.00 0.00 20 1010.0
20260503210037 71 352 8.0 17.0 0.00 0.00 0.00 20 1010.3
20260503204543 71 349 4.0 15.0 0.00 0.00 0.00 20 1010.7
20260503203046 71 5 10.0 18.0 0.00 0.00 0.00 20 1010.8
20260503201538 71 313 4.0 16.0 0.00 0.00 0.00 20 1010.9
20260503200052 70 331 12.0 20.0 0.00 0.00 0.00 21 1010.8
20260503194537 69 267 5.0 11.0 0.00 0.00 0.00 22 1011.1
20260503193055 69 333 5.0 15.0 0.00 0.00 0.00 23 1011.7
20260503191543 69 343 12.0 19.0 0.00 0.00 0.00 23 1011.9
20260503190044 68 32 5.0 12.0 0.00 0.00 0.00 24 1012.0
20260503184549 68 315 10.0 18.0 0.00 0.00 0.00 24 1012.3
20260503183043 68 346 5.0 18.0 0.00 0.00 0.00 25 1012.4
20260503181552 67 355 9.0 17.0 0.00 0.00 0.00 25 1012.5
20260503180049 66 296 3.0 12.0 0.00 0.00 0.00 25 1012.7
20260503174545 67 18 9.0 15.0 0.00 0.00 0.00 25 1013.1
20260503173056 66 5 4.0 18.0 0.00 0.00 0.00 27 1013.3
20260503171539 65 26 6.0 17.0 0.00 0.00 0.00 27 1013.2
20260503081543 43 179 3.0 7.0 0.00 0.00 0.00 75 1015.1
20260503071546 44 182 4.0 7.0 0.00 0.00 0.00 74 1015.3
20260503054542 45 167 5.0 7.0 0.00 0.00 0.00 72 1015.7
20260503053036 45 209 2.0 4.0 0.00 0.00 0.00 71 1015.8
20260503051539 46 209 1.0 6.0 0.00 0.00 0.00 70 1015.9
20260503050036 47 215 4.0 14.0 0.00 0.00 0.00 69 1015.8
20260503044536 47 175 5.0 8.0 0.00 0.00 0.00 70 1015.8
20260503043042 47 156 5.0 8.0 0.00 0.00 0.00 69 1015.6
20260503041542 48 155 3.0 6.0 0.00 0.00 0.00 69 1015.6
20260503040037 49 157 4.0 7.0 0.00 0.00 0.00 68 1015.6